Weather Roundup
Issued by NWS Chicago, IL

Home | Current Version | Previous Version | Text Only | Print | Product List | Glossary On
Versions: 1 2 3 4 5 6 7 8 9 10 11 12 13 14 15 16 17 18 19 20 21 22 23 24 25 26 27 28 29 30 31 32 33 34 35 36 37 38 39 40 41 42 43 44 45 46 47 48 49 50
000
NZUS59 KLOT 311808
HRRLOT

CHICAGO AREA WEATHER ROUNDUP
NATIONAL WEATHER SERVICE CHICAGO/ROMEOVILLE IL
100 PM CDT TUE MAY 31 2016

NOTE: "FAIR" INDICATES FEW OR NO CLOUDS BELOW 12,000 FEET WITH NO
SIGNIFICANT WEATHER AND/OR OBSTRUCTIONS TO VISIBILITY.

* THESE STATIONS ARE NOT UNDER NWS QUALITY CONTROL. THEY ALSO MAY NOT
  REPORT WEATHER SUCH AS PRECIPITATION OR FOG.

ILZ005-006-012>014-019>023-311900-
NORTHEAST ILLINOIS

CITY           SKY/WX    TMP DP  RH WIND       PRES   REMARKS
OHARE          PTSUNNY   82  59  45 E12       29.96F HX  82
6HR MIN TEMP:  69; 6HR MAX TEMP:  82;

MIDWAY         CLOUDY    82  59  45 E13       29.97F HX  82
6HR MIN TEMP:  72; 6HR MAX TEMP:  82;

AURORA         CLOUDY    75  62  64 NW15      29.98S
6HR MIN TEMP:  70; 6HR MAX TEMP:  84;

LANSING*       PTSUNNY   82  58  43 SE9       29.98F HX  82
JOLIET*        MOSUNNY   87  62  42 SE5       29.94F HX  87
WAUKEGAN       SUNNY     71  57  61 E9        29.99F
6HR MIN TEMP:  65; 6HR MAX TEMP:  71;

DUPAGE AIRPORT PTSUNNY   78  58  49 W14G24    29.98R
6HR MIN TEMP:  68; 6HR MAX TEMP:  83;

WHEELING       SUNNY     79  57  46 E10       29.99S HX  80
6HR MIN TEMP:  67; 6HR MAX TEMP:  81;

KANKAKEE*      CLOUDY    87  59  39 SE12G22   29.96F HX  86
MORRIS*        RAIN      73  64  73 NW12      29.96R
LEWIS AIRPORT* MOSUNNY   87  55  33 E10G16    29.95F HX  85
$$

WIZ051-052-058>065-066-070>072-311900-
SOUTHEAST WISCONSIN

CITY           SKY/WX    TMP DP  RH WIND       PRES   REMARKS
MILWAUKEE      CLOUDY    66  54  65 E10       30.01F
6HR MIN TEMP:  61; 6HR MAX TEMP:  70;

KENOSHA*       MOSUNNY   74  56  53 E12       30.01F
RACINE*        MOSUNNY   71  53  52 E9        30.03F
BURLINGTON     MOSUNNY   77  49  37 SE13      29.99S
WAUKESHA       MOSUNNY   73  52  46 E12G23    30.01F
WEST BEND      CLOUDY    73  54  49 E12       30.02S
$$

INZ001>003-010>013-019-020-311900-
NORTHWEST INDIANA

CITY           SKY/WX    TMP DP  RH WIND       PRES   REMARKS
GARY*          PTSUNNY   84  66  54 E14       29.99F HX  86
MICHIGAN CITY* NOT AVBL
RENSSELAER*    NOT AVBL
VALPARAISO     CLOUDY    87  57  35 E12       29.99F HX  86
$$

LMZ740>746-311900-
SOUTHERN LAKE MICHIGAN

STATION/POSITION TIME  SKY/WX   TEMP WIND        PRES    VSBY
                                AIR  DIR/SP/G
                 (UTC)          (F)  (DEG/KT/KT) (MB)    (MI)
HARRISON CRIB    1700            67   80/  6/  7   N/A
BURNHAM HARBOR   1800            69  360/  4/  6   N/A
CALUMET HARBOR   1700            66   50/  7/ 10 1015.2S
BURNS HARBOR     1700            68   60/  8/ 10 1016.3S
MICHIGAN CITY    1700            79   80/  5/  7   N/A
$$

ABBREVIATIONS USED IN REMARKS
   TC - TEMPERATURE IN CELSIUS
  WCI - WIND CHILL INDEX
   HX - HEAT INDEX
  VSB - VISIBILITY
$$




USA.gov is the U.S. government's official web portal to all federal, state and local government web resources and services.